Weather History for CYZR - March, 2013

Change the Weather History Date:

Tuesday, March 19, 2013

  Actual Average Record
Temperature  
Mean Temperature 12 °F -  
Max Temperature 27 °F 43 °F 73 °F (2012)
Min Temperature -4 °F 26 °F -4 °F (2013)
Degree Days  
Heating Degree Days 54    
Moisture  
Dew Point 23 °F    
Average Humidity 79    
Maximum Humidity 100    
Minimum Humidity 23    
Precipitation  
Precipitation 0.01 in - - ()
Sea Level Pressure  
Sea Level Pressure 29.71 in    
Wind  
Wind Speed 12 mph ()    
Max Wind Speed 22 mph    
Max Gust Speed 33 mph    
Visibility 7.4 miles    
Events Rain , Snow    
Averages and records for this station are not official NWS values.
T = Trace of Precipitation, MM = Missing Value Source: Averaged Metar Reports

Daily Weather History Graph

Daily Weather History Graph

Search for Another Location

Airport or City:

Trip Planner

Search our weather history database for the weather conditions in past years. The results will help you decide how hot, cold, wet, or windy it might be!

Date:

Astronomy

Mar. 19, 2013 Rise Set
Actual Time 7:33 AM EDT 7:40 PM EDT
Civil Twilight 7:05 AM EDT 8:08 PM EDT
Nautical Twilight 6:32 AM EDT 8:42 PM EDT
Astronomical Twilight 5:58 AM EDT 9:16 PM EDT
Moon 12:14 PM EDT (3/19) 2:34 AM EDT (3/19)
Length of Visible Light 13h 03m
Length of Day
12h 06m
Waxing Crescent, 49% of the Moon is Illuminated
Mar 19
Waxing Crescent
Mar 19
First Quarter
Mar 27
Full
Apr 3
Last Quarter
Apr 10
New

Hourly Weather History & Observations

Time (EDT) Temp. Windchill Dew Point Humidity Pressure Visibility Wind Dir Wind Speed Gust Speed Precip Events Conditions
12:00 AM 35.6 °F 26.6 °F 33.8 °F 93% 29.59 in 9.0 mi WSW 13.8 mph 21.9 mph N/A   Overcast
12:11 AM 35.6 °F 27.5 °F 33.8 °F 93% 29.59 in 9.0 mi WSW 11.5 mph 19.6 mph N/A   Overcast
12:14 AM 35.6 °F 27.1 °F 33.8 °F 93% 29.59 in 9.0 mi WSW 12.7 mph 19.6 mph N/A   Overcast
1:00 AM 35.6 °F 28.0 °F 32.0 °F 87% 29.60 in 9.0 mi WSW 10.4 mph 18.4 mph N/A   Overcast
2:00 AM 2 °F - -2 °F 74% 30.33 in - ESE 1.2 mph - -  
2:00 AM 35.6 °F 28.6 °F 32.0 °F 87% 29.61 in 9.0 mi WSW 9.2 mph 17.3 mph N/A   Overcast
2:49 AM 35.6 °F 29.2 °F 30.2 °F 81% 29.62 in 9.0 mi SW 8.1 mph 19.6 mph N/A   Overcast
3:00 AM 33.8 °F 25.8 °F 30.2 °F 87% 29.62 in 9.0 mi SSW 10.4 mph - N/A   Overcast
3:49 AM 33.8 °F 25.8 °F 30.2 °F 87% 29.62 in 9.0 mi SSW 10.4 mph - N/A Rain Light Rain
3:53 AM 33.8 °F 25.8 °F 30.2 °F 87% 29.62 in 9.0 mi SSW 10.4 mph - N/A   Overcast
3:54 AM 33.8 °F 26.4 °F 30.2 °F 87% 29.62 in 9.0 mi SSW 9.2 mph - N/A Rain Light Rain
3:56 AM 33.8 °F 26.4 °F 30.2 °F 87% 29.62 in 9.0 mi SSW 9.2 mph - N/A   Overcast
3:57 AM 33.8 °F 25.8 °F 30.2 °F 87% 29.62 in 9.0 mi SSW 10.4 mph - N/A Rain Light Rain
4:00 AM 33.8 °F 26.4 °F 30.2 °F 87% 29.61 in 9.0 mi SSW 9.2 mph - N/A Rain Light Rain
4:03 AM 33.8 °F 25.8 °F 30.2 °F 87% 29.61 in 9.0 mi SSW 10.4 mph - N/A   Overcast
4:26 AM 33.8 °F 27.0 °F 30.2 °F 87% 29.61 in 9.0 mi SSW 8.1 mph - N/A Rain Light Rain
4:30 AM 33.8 °F 26.4 °F 30.2 °F 87% 29.61 in 9.0 mi SSW 9.2 mph - N/A   Unknown
4:31 AM 33.8 °F 26.4 °F 30.2 °F 87% 29.61 in 9.0 mi SSW 9.2 mph - N/A Rain Light Rain
4:33 AM 33.8 °F 25.3 °F 30.2 °F 87% 29.61 in 9.0 mi SSW 11.5 mph - N/A   Unknown
4:34 AM 33.8 °F 25.3 °F 30.2 °F 87% 29.61 in 9.0 mi SSW 11.5 mph - N/A Rain Light Rain
4:39 AM 33.8 °F 24.8 °F 32.0 °F 93% 29.61 in - SSW 12.7 mph - N/A   Overcast
4:46 AM - - - N/A% - 9.0 mi North - - N/A   Unknown
4:48 AM 33.8 °F - 32.0 °F 93% 29.61 in - North - - N/A Rain Light Rain
4:52 AM - - - N/A% - 9.0 mi SSW 12.7 mph 18.4 mph N/A   Unknown
4:53 AM 33.8 °F - 30.2 °F 87% 29.61 in 9.0 mi North - - N/A Rain Light Rain
4:56 AM - - - N/A% - 9.0 mi North - - N/A   Unknown
5:00 AM 33.8 °F 24.3 °F 30.2 °F 87% 29.61 in 9.0 mi SSW 13.8 mph - N/A   Unknown
5:03 AM 33.8 °F 24.8 °F 32.0 °F 93% 29.61 in 8.0 mi SSW 12.7 mph 19.6 mph N/A Rain Light Rain
5:04 AM 33.8 °F 24.3 °F 30.2 °F 87% 29.62 in 8.0 mi SW 13.8 mph - N/A   Unknown
5:05 AM 33.8 °F 24.3 °F 32.0 °F 93% 29.62 in 8.0 mi SW 13.8 mph 19.6 mph N/A Rain Light Rain
5:06 AM 33.8 °F 23.9 °F 32.0 °F 93% 29.62 in 2.5 mi WSW 15.0 mph - N/A Rain Light Rain
5:08 AM 32.0 °F 21.6 °F 30.2 °F 93% 29.62 in 1.8 mi WSW 15.0 mph 21.9 mph N/A Rain Light Rain
5:10 AM 32.0 °F 22.5 °F 30.2 °F 93% 29.62 in 1.2 mi WSW 12.7 mph 21.9 mph N/A Rain , Snow Light Rain
5:12 AM 32.0 °F 23.0 °F 32.0 °F 100% 29.62 in 1.0 mi WSW 11.5 mph 21.9 mph N/A   Overcast
5:13 AM 32.0 °F 22.5 °F 32.0 °F 100% 29.62 in 1.0 mi WSW 12.7 mph 21.9 mph N/A Rain , Snow Light Snow
5:14 AM 32.0 °F 23.0 °F 30.2 °F 93% 29.62 in 1.0 mi WSW 11.5 mph 21.9 mph N/A Snow Light Snow
5:21 AM 32.0 °F 24.2 °F 30.2 °F 93% 29.62 in 2.2 mi WSW 9.2 mph 17.3 mph N/A Snow Light Snow
5:23 AM 32.0 °F 22.1 °F 30.2 °F 93% 29.62 in 3.0 mi WSW 13.8 mph 19.6 mph N/A Snow Light Snow
5:24 AM 32.0 °F 22.1 °F 30.2 °F 93% 29.63 in 6.0 mi WSW 13.8 mph 19.6 mph N/A Snow Light Snow
5:25 AM 32.0 °F 22.5 °F 30.2 °F 93% 29.62 in 6.0 mi WSW 12.7 mph 19.6 mph N/A   Overcast
5:26 AM 32.0 °F 22.1 °F 30.2 °F 93% 29.63 in 7.0 mi West 13.8 mph 20.7 mph N/A Snow Light Snow
5:27 AM 32.0 °F 22.1 °F 28.4 °F 87% 29.63 in 8.0 mi West 13.8 mph - N/A   Overcast
5:28 AM 32.0 °F 21.6 °F 28.4 °F 87% 29.63 in 9.0 mi West 15.0 mph 23.0 mph N/A Snow Light Snow
5:29 AM 32.0 °F 22.1 °F 28.4 °F 87% 29.63 in 9.0 mi West 13.8 mph 23.0 mph N/A Rain Light Rain
5:31 AM 32.0 °F 21.2 °F 28.4 °F 87% 29.63 in 9.0 mi West 16.1 mph 23.0 mph N/A   Overcast
5:34 AM 32.0 °F 23.0 °F 28.4 °F 87% 29.63 in 9.0 mi West 11.5 mph 24.2 mph N/A Rain Light Rain
5:37 AM 32.0 °F 21.2 °F 26.6 °F 80% 29.63 in 9.0 mi West 16.1 mph 24.2 mph N/A Rain , Snow Light Snow
5:38 AM 32.0 °F 21.2 °F 26.6 °F 80% 29.63 in 9.0 mi West 16.1 mph 24.2 mph N/A Snow Light Snow
5:59 AM 32.0 °F 22.1 °F 24.8 °F 75% 29.64 in 9.0 mi WSW 13.8 mph 26.5 mph N/A   Unknown
6:00 AM 32.0 °F 21.6 °F 24.8 °F 75% 29.64 in 9.0 mi WSW 15.0 mph 26.5 mph N/A Snow Light Snow
6:05 AM 32.0 °F 21.6 °F 26.6 °F 80% 29.65 in 9.0 mi West 15.0 mph 26.5 mph N/A   Unknown
6:06 AM 32.0 °F 21.2 °F 26.6 °F 80% 29.65 in 9.0 mi West 16.1 mph 25.3 mph N/A Snow Light Snow
6:19 AM 30.2 °F 19.8 °F 24.8 °F 80% 29.65 in 9.0 mi West 13.8 mph 24.2 mph N/A   Unknown
6:36 AM 30.2 °F 18.1 °F 23.0 °F 75% 29.66 in 9.0 mi West 18.4 mph 26.5 mph N/A Snow Light Snow
6:47 AM 30.2 °F 17.8 °F 23.0 °F 75% 29.67 in 9.0 mi West 19.6 mph 29.9 mph N/A   Overcast
6:48 AM 30.2 °F 18.1 °F 23.0 °F 75% 29.67 in 9.0 mi West 18.4 mph 29.9 mph N/A Snow Light Snow
7:00 AM 28.4 °F 17.0 °F 23.0 °F 80% 29.67 in 9.0 mi West 15.0 mph 24.2 mph N/A Snow Light Snow
7:14 AM 28.4 °F 17.5 °F 23.0 °F 80% 29.68 in - West 13.8 mph 23.0 mph N/A Snow Light Snow
7:39 AM 26.6 °F 12.7 °F 21.2 °F 80% 29.69 in 8.0 mi West 20.7 mph - N/A   Overcast
7:40 AM 26.6 °F 14.7 °F 21.2 °F 80% 29.69 in 7.0 mi West 15.0 mph 27.6 mph N/A Snow Light Snow
7:48 AM 26.6 °F 15.2 °F 21.2 °F 80% 29.70 in 6.0 mi West 13.8 mph 26.5 mph N/A   Overcast
7:49 AM 26.6 °F 14.3 °F 21.2 °F 80% 29.70 in 6.0 mi West 16.1 mph 26.5 mph N/A Snow Light Snow
7:51 AM 26.6 °F 14.3 °F 21.2 °F 80% 29.70 in 6.0 mi West 16.1 mph 26.5 mph N/A   Overcast
7:52 AM 26.6 °F 15.2 °F 21.2 °F 80% 29.70 in 6.0 mi West 13.8 mph 26.5 mph N/A Snow Light Snow
7:54 AM 26.6 °F 15.7 °F 21.2 °F 80% 29.70 in 6.0 mi West 12.7 mph 26.5 mph N/A   Overcast
7:55 AM 26.6 °F 15.7 °F 21.2 °F 80% 29.70 in 6.0 mi West 12.7 mph 26.5 mph N/A Snow Light Snow
7:56 AM 26.6 °F 15.2 °F 21.2 °F 80% 29.70 in 6.0 mi West 13.8 mph 26.5 mph N/A   Overcast
7:57 AM 26.6 °F 14.7 °F 21.2 °F 80% 29.70 in 6.0 mi West 15.0 mph 26.5 mph N/A Snow Light Snow
7:59 AM 26.6 °F 14.3 °F 21.2 °F 80% 29.71 in 6.0 mi West 16.1 mph 23.0 mph N/A   Overcast
8:00 AM 7 °F - 1 °F 64% 30.36 in - NE 1.2 mph - -  
8:00 AM 26.6 °F 13.8 °F 21.2 °F 80% 29.70 in 6.0 mi West 17.3 mph - N/A Snow Light Snow
8:03 AM 26.6 °F 13.4 °F 21.2 °F 80% 29.70 in 5.0 mi West 18.4 mph 24.2 mph N/A Snow Light Snow
8:04 AM 26.6 °F 13.4 °F 21.2 °F 80% 29.70 in 5.0 mi West 18.4 mph 24.2 mph N/A   Overcast
8:05 AM 24.8 °F 10.7 °F 21.2 °F 86% 29.70 in 4.0 mi West 19.6 mph 26.5 mph N/A Snow Light Snow
8:09 AM - - - N/A% - 4.0 mi North - - N/A   Overcast
8:12 AM - - - N/A% - 4.0 mi North - - N/A   Unknown
8:14 AM - - - N/A% - 4.0 mi North - - N/A   Unknown
8:16 AM 26.6 °F 15.7 °F 21.2 °F 80% 29.71 in - West 12.7 mph 19.6 mph N/A Snow Light Snow
8:31 AM 24.8 °F 11.1 °F 19.4 °F 80% 29.72 in 4.0 mi WSW 18.4 mph 25.3 mph N/A   Unknown
8:47 AM 24.8 °F 12.4 °F 19.4 °F 80% 29.72 in 9.0 mi WSW 15.0 mph 24.2 mph N/A Snow Light Snow
9:00 AM 26.6 °F 14.3 °F 17.6 °F 69% 29.72 in 9.0 mi West 16.1 mph 25.3 mph N/A Snow Light Snow
9:12 AM 26.6 °F 15.7 °F 17.6 °F 69% 29.72 in 9.0 mi West 12.7 mph 26.5 mph N/A   Overcast
9:25 AM 26.6 °F 13.1 °F 17.6 °F 69% 29.73 in 9.0 mi West 19.6 mph 27.6 mph N/A Snow Light Snow
9:38 AM 24.8 °F 11.9 °F 19.4 °F 80% 29.73 in 4.0 mi WSW 16.1 mph 23.0 mph N/A Snow Light Snow
9:41 AM 24.8 °F 13.4 °F 19.4 °F 80% 29.73 in 2.5 mi WSW 12.7 mph 23.0 mph N/A Snow Light Snow
9:42 AM 24.8 °F 14.6 °F 19.4 °F 80% 29.73 in 2.2 mi WSW 10.4 mph 23.0 mph N/A Snow Light Snow
9:49 AM 24.8 °F 11.9 °F 19.4 °F 80% 29.73 in 3.0 mi West 16.1 mph 26.5 mph N/A Snow Light Snow
9:50 AM 24.8 °F 11.9 °F 19.4 °F 80% 29.72 in 3.0 mi West 16.1 mph 26.5 mph N/A Snow Light Snow
9:52 AM 24.8 °F 11.5 °F 19.4 °F 80% 29.72 in 6.0 mi WSW 17.3 mph 26.5 mph N/A Snow Light Snow
10:00 AM 26.6 °F 15.2 °F 17.6 °F 69% 29.72 in 9.0 mi West 13.8 mph 26.5 mph N/A Snow Light Snow
10:35 AM 26.6 °F 15.2 °F 17.6 °F 69% 29.72 in 9.0 mi WSW 13.8 mph 21.9 mph N/A   Overcast
11:00 AM 26.6 °F 13.8 °F 17.6 °F 69% 29.73 in 9.0 mi West 17.3 mph 27.6 mph N/A   Overcast
11:03 AM 26.6 °F 13.8 °F 17.6 °F 69% 29.73 in 9.0 mi WSW 17.3 mph 27.6 mph N/A Snow Light Snow
11:55 AM 26.6 °F 14.7 °F 15.8 °F 64% 29.74 in 9.0 mi West 15.0 mph 25.3 mph N/A   Overcast
11:57 AM 26.6 °F 14.3 °F 15.8 °F 64% 29.74 in 9.0 mi West 16.1 mph 25.3 mph N/A Snow Light Snow
12:00 PM 26.6 °F 15.2 °F 15.8 °F 64% 29.73 in 9.0 mi West 13.8 mph 25.3 mph N/A Snow Light Snow
12:16 PM 26.6 °F 14.3 °F 15.8 °F 64% 29.73 in 9.0 mi West 16.1 mph 29.9 mph N/A   Overcast
12:18 PM 26.6 °F 13.8 °F 15.8 °F 64% 29.73 in 9.0 mi WSW 17.3 mph 29.9 mph N/A Snow Light Snow
12:47 PM 26.6 °F 16.2 °F 17.6 °F 69% 29.74 in 9.0 mi WSW 11.5 mph 29.9 mph N/A   Overcast
12:58 PM 26.6 °F 14.3 °F 15.8 °F 64% 29.74 in 9.0 mi WSW 16.1 mph 24.2 mph N/A Snow Light Snow
1:00 PM 26.6 °F 15.2 °F 17.6 °F 69% 29.75 in 9.0 mi WSW 13.8 mph 24.2 mph N/A Snow Light Snow
2:00 PM 24 °F - 2 °F 23% 30.23 in - East 3.5 mph - -  
2:00 PM 26.6 °F 12.7 °F 17.6 °F 69% 29.75 in 9.0 mi WSW 20.7 mph 28.8 mph N/A Snow Light Snow
2:41 PM 26.6 °F 13.8 °F 19.4 °F 74% 29.76 in 5.0 mi West 17.3 mph 25.3 mph N/A Snow Light Snow
2:54 PM 26.6 °F 14.7 °F 19.4 °F 74% 29.76 in 6.0 mi WSW 15.0 mph 21.9 mph N/A Snow Light Snow
3:00 PM 26.6 °F 13.8 °F 17.6 °F 69% 29.76 in 9.0 mi WSW 17.3 mph 25.3 mph N/A Snow Light Snow
4:00 PM 26.6 °F 14.7 °F 19.4 °F 74% 29.79 in 8.0 mi West 15.0 mph 27.6 mph N/A Snow Light Snow
4:25 PM 26.6 °F 12.4 °F 19.4 °F 74% 29.80 in 5.0 mi West 21.9 mph 29.9 mph N/A Snow Light Snow
4:37 PM 26.6 °F 14.7 °F 19.4 °F 74% 29.81 in 6.0 mi WSW 15.0 mph 33.4 mph N/A Snow Light Snow
4:51 PM 26.6 °F 13.1 °F 17.6 °F 69% 29.81 in 9.0 mi West 19.6 mph 28.8 mph N/A   Overcast
4:54 PM 26.6 °F 13.8 °F 17.6 °F 69% 29.81 in 9.0 mi West 17.3 mph 28.8 mph N/A Snow Light Snow
5:00 PM 26.6 °F 14.7 °F 17.6 °F 69% 29.81 in 9.0 mi WSW 15.0 mph 25.3 mph N/A Snow Light Snow
5:58 PM 26.6 °F 13.1 °F 15.8 °F 64% 29.83 in 9.0 mi West 19.6 mph 29.9 mph N/A   Overcast
6:00 PM 26.6 °F 13.8 °F 15.8 °F 64% 29.83 in 9.0 mi West 17.3 mph 29.9 mph N/A   Overcast
6:05 PM 26.6 °F 13.1 °F 15.8 °F 64% 29.83 in 9.0 mi West 19.6 mph 26.5 mph N/A Snow Light Snow
6:55 PM 24.8 °F 12.4 °F 17.6 °F 74% 29.85 in 9.0 mi West 15.0 mph 23.0 mph N/A   Overcast
6:57 PM 24.8 °F 13.4 °F 17.6 °F 74% 29.86 in 9.0 mi West 12.7 mph 23.0 mph N/A Snow Light Snow
7:00 PM 24.8 °F 13.4 °F 17.6 °F 74% 29.86 in 9.0 mi West 12.7 mph 23.0 mph N/A Snow Light Snow
8:00 PM 17 °F - 10 °F 64% 30.15 in - East 3.5 mph - -  
8:00 PM 24.8 °F 11.5 °F 15.8 °F 69% 29.87 in 9.0 mi West 17.3 mph 29.9 mph N/A Snow Light Snow
9:00 PM 24.8 °F 13.4 °F 17.6 °F 74% 29.88 in 9.0 mi West 12.7 mph 25.3 mph N/A Snow Light Snow
10:00 PM 24.8 °F 14.0 °F 19.4 °F 80% 29.89 in 9.0 mi West 11.5 mph 20.7 mph N/A Snow Light Snow
11:00 PM 24.8 °F 13.4 °F 19.4 °F 80% 29.90 in 9.0 mi West 12.7 mph - N/A Snow Light Snow
11:34 PM 24.8 °F 15.3 °F 19.4 °F 80% 29.90 in 9.0 mi West 9.2 mph 23.0 mph N/A   Partly Cloudy